Weather in Puerto Jimenez

Costa Rica     8°31′59″N   83°18′06″W
temp.,
°C
wind,
m/s
gust,
m/s
humid.,
%
clouds,
%
prec.,
mm/h
press.,
hPa
HPBL,
m
15 may, sat
sat1500:00+25nne119097 1.6 101042
03:00+25ne119110 0.4 100954
06:00+25ne129249 0.8 101087
09:00+28sse127893 0.1 1012487
12:00+29ssw437167 0.4 1010914
15:00+28ssw44767 0.9 1008690
18:00+26wsw1184100 4.8 1009109
21:00+25nnw1288100 0.3 101180
16 may, sun
sun1600:00+25nnw1289100 0.6 101088
03:00+25n129143 0.4 101076
06:00+25ne1291100 0.4 101196
09:00+28se007396 0.0 1012506
12:00+29ssw3269100 0.1 1011999
15:00+29sw447299 0.1 1009711
18:00+26w118492 2.6 101191
21:00+25nnw128829 0.8 101275
17 may, mon
mon1700:00+25nnw229127 1.0 101192
03:00+24n129227 0.3 101099
06:00+24n129141 0.4 1011103
09:00+28w017311 0.1 1013594
12:00+28sw4374100 0.6 1011699
15:00+28w2377100 1.9 1010527
18:00+25wnw23866 4.2 1011173
21:00+25nw2290100 0.6 101394
18 may, tue
tue1800:00+24nw23937 0.9 1012117
03:00+24nw239311 0.1 1010127
06:00+24nnw229227 0.2 1012134
09:00+28wnw1274100 0.1 1013622
12:00+29ssw3271100 0.4 1011828
15:00+29wsw347358 0.8 1009719
18:00+26wsw2285100 3.3 1011235
21:00+25w118892 3.8 101235
19 may, wed
wed1900:00+24nw0089100 8.0 101128
03:00+24nne118999 1.1 101156
06:00+24ne11908 1.2 101187
09:00+28se017410 0.0 1012563
12:00+28ssw327026 0.4 1011865
15:00+29sw326985 0.1 1008805
18:00+26ssw228029 0.2 1008198
21:00+26wnw128345 0.1 1010151